Location: Utrecht
(52.0907°N, 5.1214°E)
Time: 06:35:20
(UTC+01:00)

Tiangong - Visible Passes

Search period start: 25 January 2022 00:00
Search period end: 04 February 2022 00:00
Orbit: 383 x 386 km, 41.5° (Epoch: 23 January)

Date Brightness Start Highest point End Pass type
(mag) Time Alt. Az. Time Alt. Az. Time Alt. Az.
30 Jan 3.8 19:38:03 10° SSW 19:38:41 11° S 19:38:41 11° S visible
31 Jan 3.9 18:39:37 10° SSE 18:39:42 10° SSE 18:39:46 10° SSE visible
01 Feb 3.6 19:14:35 10° SSW 19:16:02 13° S 19:16:57 11° SSE visible
02 Feb 3.8 18:15:12 10° SSW 18:16:24 12° S 18:17:37 10° SSE visible
02 Feb 3.9 19:51:18 10° SSW 19:52:10 11° SSW 19:52:10 11° SSW visible
03 Feb 3.8 18:51:18 10° SSW 18:52:43 12° S 18:54:08 10° SSE visible
